Regional Weather Roundup
Issued by NWS

Home | Current Version | Previous Version | Graphics & Text | Print | Product List | Glossary On
Versions: 1 2 3 4 5 6 7 8 9 10 11 12 13 14 15 16 17 18 19 20 21 22 23 24 25 26 27 28 29 30 31 32 33 34 35 36 37 38 39 40 41 42 43 44 45 46 47 48 49 50
000
ASUS43 KDMX 180707
RWRIA

WEATHER ROUNDUP FOR IOWA
NATIONAL WEATHER SERVICE DES MOINES IA
100 AM CST THU DEC 18 2014

NOTE: "FAIR" INDICATES FEW OR NO CLOUDS BELOW 12,000 FEET WITH NO
SIGNIFICANT WEATHER AND/OR OBSTRUCTIONS TO VISIBILITY.

* - THESE STATIONS ARE NOT NWS STATIONS...THUS NOT UNDER NWS
QUALITY CONTROL.  THEY ALSO DO NOT REPORT WEATHER SUCH
AS PRECIPITATION OR FOG.

IAZ001>003-012>014-020>022-031>034-043>046-180800-
   NORTHWEST IOWA

CITY           SKY/WX    TMP DP  RH WIND       PRES   REMARKS
CARROLL *      CLOUDY    23  19  86 E3        30.27F
CHEROKEE *     CLOUDY    21  19  93 CALM      30.28F
DENISON *      CLOUDY    25  19  80 CALM      30.24F
LE MARS *      CLOUDY    23  19  86 VRB6      30.27F WCI  16
ORANGE CITY *  CLOUDY    23  18  80 SE3       30.26S
SHELDON *      CLOUDY    16  14  93 E6        30.27S WCI   7
SIOUX CITY     CLOUDY    26  19  74 E7        30.26F WCI  18
SPENCER        CLOUDY    15  10  80 NE5       30.29R WCI   8
STORM LAKE *   CLOUDY    19  18  93 E6        30.27F WCI  11
$$

IAZ055>058-069>071-079>083-090>094-180800-
   SOUTHWEST IOWA

CITY           SKY/WX    TMP DP  RH WIND       PRES   REMARKS
ATLANTIC *     CLOUDY    25  19  80 E6        30.25F WCI  18
AUDUBON *      CLOUDY    25  16  68 E5        30.26F WCI  19
CLARINDA *     CLOUDY    28  21  74 E6        30.27F WCI  22
COUNCIL BLFS * CLOUDY    27  23  86 E6        30.22F WCI  20
CRESTON *      CLOUDY    25  18  74 E6        30.26F WCI  18
HARLAN  *      CLOUDY    25  23  93 E7        30.28F WCI  17
LAMONI         CLOUDY    26  18  71 E5        30.26F WCI  20
RED OAK *      CLOUDY    27  21  80 NE7       30.25F WCI  19
SHENANDOAH *   CLOUDY    28  23  80 E5        30.26F WCI  23
$$

IAZ047>049-059>061-072>074-084-180800-
   CENTRAL IOWA

CITY           SKY/WX    TMP DP  RH WIND       PRES   REMARKS
AMES           CLOUDY    20  15  81 CALM      30.30R
ANKENY *       PTCLDY    16  14  93 N3        30.30F
CHARITON *     CLOUDY    25  18  74 E3        30.28S
DES MOINES     CLOUDY    23  16  74 CALM      30.29F
GRINNELL*      PTCLDY    16  12  86 N3        30.28F
KNOXVILLE *    CLOUDY    21  16  79 CALM      30.28R
MARSHALLTOWN   PTCLDY    12   9  87 NW3       30.29R
PELLA *        PTCLDY    19  16  86 CALM      30.31S
PERRY *        CLOUDY    21  19  93 CALM      30.29F
$$

IAZ004>006-015-016-023>025-035-036-180800-
   NORTH CENTRAL IOWA

CITY           SKY/WX    TMP DP  RH WIND       PRES   REMARKS
ALGONA *       CLEAR     12  10  92 CALM      30.31R
CLARION *      CLEAR     12  10  92 CALM      30.30R
ESTHERVILLE    CLEAR      9   6  88 NW3       30.28R
FORT DODGE *   CLOUDY    16  12  86 CALM      30.30S
MASON CITY     MOCLDY    15  12  88 NE6       30.29S WCI   6
FOREST CITY *  CLEAR     18  12  79 CALM      30.27S
IOWA FALLS *     N/A     14  10  85 CALM      30.30R
$$

IAZ007>011-017>019-026>030-037>042-050>054-066-180800-
   NORTHEAST IOWA

CITY           SKY/WX    TMP DP  RH WIND       PRES   REMARKS
CEDAR RAPIDS   PTCLDY    12  11  95 CALM      30.28S
CHARLES CITY * CLEAR     16  14  93 NE5       30.28F WCI   9
CLINTON *      PTCLDY    16  10  79 N7        30.31F WCI   6
DECORAH *      CLOUDY    18  12  79 NE3       30.27F
DUBUQUE        CLEAR     15  13  91 NE5       30.27F WCI   8
MONTICELLO *   CLEAR     18  16  93 CALM      30.28F
OELWEIN *      CLEAR     16  12  86 NE5       30.28F WCI   9
WATERLOO       PTCLDY    14  11  87 N5        30.29F WCI   6
$$

IAZ064-065-067-068-078-180800-
   EAST CENTRAL IOWA

CITY           SKY/WX    TMP DP  RH WIND       PRES   REMARKS
DAVENPORT      PTCLDY    14  10  84 NE7       30.28F WCI   4
IOWA CITY      PTCLDY    19  15  84 N3        30.31S
MT. PLEASANT * PTCLDY    19  16  86 CALM      30.30S
MUSCATINE *    CLEAR     18  16  93 CALM      30.31S
QUAD CITIES    MOCLDY    17  13  84 NE3       30.29F
$$

IAZ062-063-075>077-085>089-095>099-180800-
   SOUTHEAST IOWA

CITY           SKY/WX    TMP DP  RH WIND       PRES   REMARKS
BURLINGTON     MIX PCPN  21  17  84 CALM      30.30S
FAIRFIELD *    CLEAR     18  16  93 CALM      30.30S
FORT MADISON * CLEAR     21  19  93 CALM      30.30S
KEOKUK *       CLEAR     23  21  93 CALM      30.29F
OSKALOOSA *      N/A     18  16  93 CALM      30.30S
CENTERVILLE *  CLOUDY    25  19  80 E3        30.29F
OTTUMWA        MOCLDY    20  15  81 CALM      30.29F
WASHINGTON *   CLEAR     18  18 100 CALM      30.30R
$$

ABBREVIATIONS USED IN REMARKS
   TC - TEMPERATURES IN CELSIUS
  WCI - WIND CHILL INDEX
   HX - HEAT INDEX
  VSB - VISIBILITY
$$




USA.gov is the U.S. government's official web portal to all federal, state and local government web resources and services.